[Date Prev][Date Next][Thread Prev][Thread Next] - [Date Index][Thread Index][Author Index]
2 Line ISS Keps 3-8
- Subject: [sarex] 2 Line ISS Keps 3-8
- From: "Dave Larsen PhD" <doc@xxxxxxxxxxx>
- Date: Fri, 8 Mar 2002 02:19:57 -0800
ISS
1 25544U 98067A 02067.19723101 .00072396 00000-0 86788-3 0 1617
2 25544 51.6390 200.2988 0005326 159.6388 263.8316 15.60250639188284
----
Via the sarex mailing list at AMSAT.ORG courtesy of AMSAT-NA.
To unsubscribe, send "unsubscribe sarex" to Majordomo@amsat.org
AMSAT Home